ASTRA 2B

Last updated on Dec. 5, 2020, 6:14 a.m. UTC

1 26494U 00054A   20339.53966708  .00000133  00000-0  00000-0 0  9992
2 26494   4.8897  72.7842 0005255 183.7335  31.1693  1.00272794 26621
UTC
Height (km)
Latitude
Longitude
Inclination
Orbital Period
UTC large
Height (km)
Speed (km/s)
/
Latitude / Longitude
Inclination (degrees)
Orbital Period (minutes)
Azimuth
Elevation
Range (km)
Doppler Factor
iOS Compass Heading
iOS Angle

Next 30 passes for location: Hong Kong

Rise time Rise Azimuth (degrees) Set time Set Azimuth (degrees) Duration Max altitude (degrees)

No matching passes for this satellites